OSCAR 7 (AO-7) 1 07530U 74089B 25299.75919296 -.00000035 00000+0 70534-4 0 9999 2 07530 101.9984 305.5281 0012019 215.8726 318.7162 12.53692792331266 PHASE 3B (AO-10) 1 14129U 83058B 25299.77305522 -.00000199 00000+0 00000+0 0 9997 2 14129 26.1864 259.1774 6067758 50.5657 349.1105 2.05872717290685 UOSAT 2 (UO-11) 1 14781U 84021B 25299.85237397 .00002775 00000+0 29406-3 0 9991 2 14781 97.7742 263.6355 0006315 228.3044 131.7634 14.89903523222372 LUSAT (LO-19) 1 20442U 90005G 25299.51919741 .00000211 00000+0 92395-4 0 9995 2 20442 98.8992 309.7399 0011830 166.3379 193.8127 14.34015595868906 EYESAT A (AO-27) 1 22825U 93061C 25299.79750708 .00000183 00000+0 86717-4 0 9992 2 22825 98.7208 1.9389 0009384 68.5059 291.7123 14.30850946673621 ITAMSAT (IO-26) 1 22826U 93061D 25299.63613352 .00000213 00000+0 97473-4 0 9994 2 22826 98.7156 1.6720 0009753 54.2407 305.9682 14.31269446673908 RADIO ROSTO (RS-15) 1 23439U 94085A 25299.86360925 -.00000041 00000+0 35660-4 0 9992 2 23439 64.8183 320.5619 0148119 47.4631 313.8690 11.27581706269597 JAS-2 (FO-29) 1 24278U 96046B 25299.60278964 .00000020 00000+0 57942-4 0 9999 2 24278 98.5510 175.0538 0349707 342.4900 16.4426 13.53258259441571 TECHSAT 1B (GO-32) 1 25397U 98043D 25299.85266834 .00000146 00000+0 83144-4 0 9993 2 25397 98.9879 281.9915 0001791 133.3595 226.7732 14.24357173418111 ISS (ZARYA) 1 25544U 98067A 25299.71634698 .00015600 00000+0 28569-3 0 9995 2 25544 51.6344 15.2829 0004606 341.7148 18.3675 15.49497961535565 PCSAT (NO-44) 1 26931U 01043C 25299.79612112 .00000242 00000+0 12149-3 0 9992 2 26931 67.0485 127.8735 0007136 272.5920 87.4365 14.31813649257030 SAUDISAT 1C (SO-50) 1 27607U 02058C 25299.84751050 .00001754 00000+0 22933-3 0 9992 2 27607 64.5505 130.4983 0069180 305.2750 54.1896 14.82132133229861 CUTE-1 (CO-55) 1 27844U 03031E 25299.79876281 .00000516 00000+0 24332-3 0 9995 2 27844 98.6784 306.3039 0010311 138.4725 221.7239 14.24120072158451 CUBESAT XI-IV (CO-57) 1 27848U 03031J 25299.53173720 .00000422 00000+0 20480-3 0 9995 2 27848 98.6813 305.9395 0009910 155.8451 204.3194 14.23436715158135 MOZHAETS 4 (RS-22) 1 27939U 03042A 25299.92176252 .00001880 00000+0 30239-3 0 9996 2 27939 98.3380 112.8839 0010339 290.8098 231.7500 14.72767172181201 CUBESAT XI-V 1 28895U 05043F 25299.39468601 .00002793 00000+0 45677-3 0 9990 2 28895 98.2695 85.6916 0013638 223.9856 136.0266 14.71605622 67353 CUTE-1.7+APD II (CO-65) 1 32785U 08021C 25299.88212691 .00008736 00000+0 59969-3 0 9994 2 32785 97.8032 272.3498 0011363 98.8361 261.4153 15.06179035950036 SEEDS II (CO-66) 1 32791U 08021J 25299.69892248 .00020371 00000+0 86699-3 0 9991 2 32791 97.7424 283.3148 0006032 66.2530 293.9338 15.23017438951634 YUBILEINY (RS-30) 1 32953U 08025A 25299.87202784 .00000002 00000+0 -57184-4 0 9993 2 32953 82.5005 140.5762 0019916 100.3144 260.0183 12.43169730790707 KKS-1 (KISEKI) 1 33499U 09002H 25299.75941095 .00002524 00000+0 32365-3 0 9990 2 33499 98.1134 213.6892 0007456 337.9920 22.0971 14.82160604901601 SWISSCUBE 1 35932U 09051B 25299.67941190 .00001865 00000+0 38385-3 0 9990 2 35932 98.4139 198.4228 0005836 211.5873 148.4978 14.61745275855035 BEESAT-1 1 35933U 09051C 25299.71189054 .00001596 00000+0 33464-3 0 9993 2 35933 98.4071 198.5572 0004150 225.4812 134.6049 14.61097705855088 ITUPSAT1 1 35935U 09051E 25299.63866887 .00001454 00000+0 31399-3 0 9990 2 35935 98.4160 197.9049 0006273 240.1575 119.9001 14.59867824854659 XIWANG-1 (HOPE-1) 1 36122U 09072B 25299.84993042 -.00000018 00000+0 69521-4 0 9994 2 36122 100.3682 252.7786 0008017 49.5753 310.6058 13.16430207762300 O/OREOS (USA 219) 1 37224U 10062C 25299.84217369 .00003899 00000+0 38684-3 0 9994 2 37224 71.9708 248.3764 0013872 159.3118 200.8616 14.92283770 81819 JUGNU 1 37839U 11058B 25299.31125015 .00000607 00000+0 17779-3 0 9996 2 37839 19.9614 289.2062 0018615 14.3602 13.9787 14.13666788725894 SRMSAT 1 37841U 11058D 25299.67288957 .00000516 00000+0 13624-3 0 9997 2 37841 19.9730 32.8033 0011719 154.1364 357.3004 14.11487063724781 STRAND-1 1 39090U 13009E 25299.45982113 .00000551 00000+0 20060-3 0 9995 2 39090 98.3843 120.5618 0008164 203.1552 156.9268 14.36943373663496 ZACUBE-1 (TSHEPISOSAT) 1 39417U 13066B 25299.85584786 .00007239 00000+0 60217-3 0 9997 2 39417 97.7987 256.3781 0041420 308.8811 50.8719 14.98331559645750 GOMX-1 1 39430U 13066Q 25299.81648260 .00002545 00000+0 39372-3 0 9999 2 39430 97.6646 149.8762 0132395 106.2940 255.2874 14.68282427635653 CUBEBUG-2 (LO-74) 1 39440U 13066AA 25299.84763506 .00006341 00000+0 62023-3 0 9991 2 39440 97.8632 243.6263 0062434 80.3397 280.4867 14.91210114642182 FUNCUBE-1 (AO-73) 1 39444U 13066AE 25299.86072235 .00011459 00000+0 80223-3 0 9997 2 39444 97.7990 262.6207 0037885 276.7173 82.9741 15.04832379644519 UWE-3 1 39446U 13066AG 25299.82769916 .00007752 00000+0 70657-3 0 9995 2 39446 97.8409 250.1921 0052620 19.1322 341.1858 14.94344740642695 UNISAT-6 1 40012U 14033C 25299.69651860 .00005169 00000+0 58083-3 0 9993 2 40012 97.7599 92.2483 0047757 117.1290 243.4808 14.86322228611458 DUCHIFAT-1 1 40021U 14033M 25299.81143951 .00036046 00000+0 10203-2 0 9993 2 40021 98.0860 326.8878 0007381 174.2516 185.8812 15.36185403619631 QB50P1 1 40025U 14033R 25299.68908779 .00011095 00000+0 62856-3 0 9998 2 40025 98.0955 290.3496 0007939 314.0960 45.9615 15.13177794617653 LILACSAT-2 1 40908U 15049K 25299.87167375 .00017920 00000+0 41037-3 0 9997 2 40908 97.4973 323.8638 0009199 31.6047 328.5750 15.42800845559673 FOX-1A (AO-85) 1 40967U 15058D 25299.40399647 .00002935 00000+0 27285-3 0 9999 2 40967 64.7754 284.5960 0140518 147.7557 213.2244 14.89194558 78737 CAS-2T & KS-1Q 1 41847U 16066G 25299.78393500 .00002348 00000+0 33767-3 0 9990 2 41847 98.4079 12.9834 0345486 117.1382 246.5483 14.43953895471109 RADFXSAT (FOX-1B) 1 43017U 17073E 25299.60306498 .00010672 00000+0 51490-3 0 9993 2 43017 97.4997 166.9083 0166506 52.3606 309.2598 15.07382399430135 DIWATA-2B 1 43678U 18084H 25299.80031865 .00003921 00000+0 32781-3 0 9995 2 43678 98.1101 121.3725 0007780 165.5094 194.6352 14.99103572381231 ES'HAIL 2 1 43700U 18090A 25299.83608506 .00000156 00000+0 00000+0 0 9995 2 43700 0.0193 125.4852 0001966 128.6521 108.1250 1.00274203 25332 FOX-1CLIFF (AO-95) 1 43770U 18099N 25299.62544345 .00013297 00000+0 61338-3 0 9993 2 43770 97.4742 356.2958 0011456 89.5784 270.6763 15.20307042377655 ITASAT 1 43786U 18099AE 25299.68837341 .00009514 00000+0 51088-3 0 9995 2 43786 97.4390 350.9978 0015263 86.4550 273.8428 15.15032582377506 JY1SAT (JO-97) 1 43803U 18099AX 25299.72767690 .00017251 00000+0 69769-3 0 9991 2 43803 97.4487 357.7529 0007203 29.1755 330.9884 15.24762246377942 UWE-4 1 43880U 18111E 25299.69627737 .00026242 00000+0 86598-3 0 9993 2 43880 97.5821 215.0397 0013618 81.4143 278.8640 15.31310772374878 DUCHIFAT-3 1 44854U 19089C 25299.82123541 .00175064 00000+0 14005-2 0 9999 2 44854 36.9322 179.3619 0009891 300.6601 59.3187 15.69546604324694 TIANYAN 01 1 44881U 19093C 25299.83531605 .00001509 00000+0 17880-3 0 9996 2 44881 97.7806 12.5086 0014773 130.7199 229.5303 14.85940024316751 RS-44 & BREEZE-KM R/B 1 44909U 19096E 25299.79330675 .00000015 00000+0 20253-4 0 9999 2 44909 82.5184 134.8092 0217036 330.3237 28.5691 12.79744929272492 SALSAT 1 46495U 20068K 25299.50806266 .00011264 00000+0 45134-3 0 9997 2 46495 97.8762 284.2826 0012389 47.7562 312.4724 15.25148235279686 XW-3 (CAS-9) 1 50466U 21131B 25299.85207098 .00000908 00000+0 29607-3 0 9998 2 50466 98.5071 28.5097 0005216 83.2713 276.9069 14.41014410201509 GREENCUBE (IO-117) 1 53109U 22080E 25299.57400561 -.00000003 00000+0 00000+0 0 9997 2 53109 70.1631 19.4789 0008795 338.0333 21.9949 6.42583372 77051 STRATOSAT-TK 1 (RS52S) 1 57167U 23091B 25299.82152927 .00113373 00000+0 15115-2 0 9996 2 57167 97.5315 9.0356 0005822 171.7567 188.3784 15.57712021129532 UMKA 1 (RS40S) 1 57172U 23091G 25299.79926242 .00007374 00000+0 37330-3 0 9994 2 57172 97.5405 354.4813 0013139 206.4490 153.6074 15.17231262128573 CUBESX-HSE 3 (RS42S) 1 57178U 23091N 25299.82751826 .00014364 00000+0 59329-3 0 9997 2 57178 97.5438 358.1953 0012411 189.6455 170.4546 15.24051286128795 MONITOR-3 (RS58S) 1 57180U 23091Q 25299.89074528 .00012575 00000+0 55311-3 0 9993 2 57180 97.5432 357.1236 0013020 193.4368 166.6523 15.21941211128737 MONITOR-4 (RS57S) 1 57182U 23091S 25299.88222556 .00012362 00000+0 54283-3 0 9991 2 57182 97.5426 357.0747 0013033 193.9372 166.1506 15.22003959128737 MONITOR-2 (RS39S) 1 57184U 23091U 25299.83508575 .00007451 00000+0 39134-3 0 9997 2 57184 97.5433 354.6062 0011494 196.5092 163.5768 15.15945718128569 SVYATOBOR 1 (RS60S) 1 57187U 23091X 25299.88354604 .00010746 00000+0 47990-3 0 9997 2 57187 97.5437 357.7741 0010455 183.0077 177.1098 15.21491998128777 VIZARD-METEO (RS38S) 1 57189U 23091Z 25299.82759287 .00016768 00000+0 62767-3 0 9998 2 57189 97.5427 0.6671 0009035 171.7183 188.4207 15.27337664128961 NANOZOND 1 (RS49S) 1 57190U 23091AA 25299.86070846 .00058227 00000+0 11863-2 0 9997 2 57190 97.5370 7.6640 0005721 158.1134 202.0360 15.46034362129443 POLYTECH-UNIVERSE 3 (R*) 1 57191U 23091AB 25299.89002971 .00007340 00000+0 38338-3 0 9992 2 57191 97.5405 354.1800 0015660 215.5036 144.5155 15.16099896128567 UTMN 2 (RS27S) 1 57203U 23091AP 25299.85188563 .00015522 00000+0 62302-3 0 9993 2 57203 97.5426 359.5553 0009581 175.6308 184.5014 15.25025967128893 ARCCUBE 1 (RS25S) 1 57205U 23091AR 25298.50103340 .00275701 00000+0 20442-2 0 9991 2 57205 97.5234 11.3336 0003022 202.1672 157.9460 15.72067869129594 KUZGTU 1 (RS47S) 1 57217U 23091AV 25299.85057760 .00014554 00000+0 61546-3 0 9995 2 57217 97.5411 357.5793 0012472 192.2581 167.8354 15.23252253128773 SONATE-2 1 59112U 24043Q 25299.64697194 .00027686 00000+0 65428-3 0 9990 2 59112 97.5310 74.2739 0009337 338.8503 21.2356 15.41763676 91712 MESAT1 1 60209U 24125G 25299.55159801 .00030277 00000+0 69624-3 0 9990 2 60209 97.2591 150.0075 0016464 2.8267 357.3071 15.42464846 73321 OOV-CUBE (TUBSAT-30) 1 60240U 24128F 25299.52729183 .00003174 00000+0 25356-3 0 9991 2 60240 61.9960 319.4624 0058733 84.1269 276.6512 15.01179510 71018 COLIBRI-S (RS67S) 1 61746U 24199M 25299.91082093 .00020884 00000+0 57913-3 0 9997 2 61746 97.3313 167.9017 0012603 51.3845 308.8526 15.36879214101450 HORS 3 (RS81S) 1 61753U 24199U 25299.86472153 .00027369 00000+0 69799-3 0 9999 2 61753 97.3283 168.2755 0011198 59.0610 301.1735 15.39428683101484 HORS 4 (RS82S) 1 61754U 24199V 25299.91125262 .00030670 00000+0 74802-3 0 9992 2 61754 97.3271 168.6492 0011397 57.2322 303.0021 15.40764480101518 HORIZON (RS59S) 1 61757U 24199Y 25299.88663772 .00050212 00000+0 97857-3 0 9993 2 61757 97.3283 170.1563 0010724 45.3393 314.8729 15.47319365101600 SIT-2086 1 61764U 24199AF 25299.88113897 .00020067 00000+0 50028-3 0 9993 2 61764 97.3283 169.0155 0009348 48.0852 312.1190 15.40204590 98370 MORDOVIA-IOT (RS50S) 1 61765U 24199AG 25299.88866091 .00093567 00000+0 13146-2 0 9999 2 61765 97.3236 171.8969 0009249 43.6637 316.5348 15.56338459 98579 RUZAEVKA 390 (RS44S) 1 61766U 24199AH 25299.89694105 .00072357 00000+0 11659-2 0 9997 2 61766 97.3245 171.2754 0009482 44.1560 316.0448 15.52646789 98532 HYPERVIEW 1G (RS66S) 1 61772U 24199AP 25299.86295862 .00040987 00000+0 92260-3 0 9990 2 61772 97.3270 168.8653 0013574 56.3061 303.9478 15.43088262 98371 ALTAIR (RS65S) 1 61779U 24199AW 25299.91149794 .00011161 00000+0 36831-3 0 9999 2 61779 97.3316 166.1820 0016493 64.8943 295.4008 15.31452747101348 ASRTU-1 (AO-123) 1 61781U 24199AY 25299.88414498 .00010839 00000+0 36674-3 0 9990 2 61781 97.3300 165.8782 0016933 65.7494 294.5514 15.30645911 98171 TUSUR GO (RS78S) 1 61782U 24199AZ 25299.86188038 .00056398 00000+0 11340-2 0 9999 2 61782 97.3257 169.3027 0013441 55.2788 304.9726 15.46346612 98405 SAMSAT-IONOSPHERE (RS7*) 1 61784U 24199BB 25299.86945226 .00030622 00000+0 77885-3 0 9990 2 61784 97.3281 167.9784 0015022 59.2956 300.9768 15.39435747101469 RTU MIREA 1 (RS51S) 1 61785U 24199BC 25299.85199350 .00031938 00000+0 78976-3 0 9992 2 61785 97.3279 168.1465 0014723 57.6216 302.6453 15.40290837 98325 HADES-R 1 62690U 25009CK 25299.21996178 .00083545 00000+0 17762-2 0 9998 2 62690 97.3958 20.5546 0002577 289.4569 70.6401 15.44683784 43412 TEVEL2-4 1 63213U 25052D 25299.69747726 .00019037 00000+0 76960-3 0 9994 2 63213 97.4120 191.9298 0002084 160.8986 199.2330 15.24775670 34414 TEVEL2-5 1 63214U 25052E 25299.63539073 .00018670 00000+0 75611-3 0 9997 2 63214 97.4116 191.8611 0002127 162.7380 197.3930 15.24721086 34401 TEVEL2-6 1 63215U 25052F 25299.64123671 .00019300 00000+0 78248-3 0 9992 2 63215 97.4120 191.8572 0002119 163.3657 196.7650 15.24677069 34401 TEVEL2-1 1 63217U 25052H 25299.67454749 .00018809 00000+0 76920-3 0 9998 2 63217 97.4094 191.7390 0001561 186.7428 173.3789 15.24392092 34409 TEVEL2-3 1 63218U 25052J 25299.67429569 .00018675 00000+0 76342-3 0 9990 2 63218 97.4095 191.7422 0001565 188.5533 171.5678 15.24406151 34407 TEVEL2-2 1 63219U 25052K 25299.67532611 .00018544 00000+0 75847-3 0 9998 2 63219 97.4092 191.7397 0001557 188.2250 171.8963 15.24390358 34401 TEVEL2-9 1 63237U 25052AD 25299.65970206 .00017949 00000+0 76459-3 0 9990 2 63237 97.4152 191.4934 0005085 242.6272 117.4448 15.23013047 34377 TEVEL2-7 1 63238U 25052AE 25299.66949475 .00017304 00000+0 73981-3 0 9998 2 63238 97.4158 191.4853 0005143 242.8392 117.2320 15.22895759 34378 TEVEL2-8 1 63239U 25052AF 25299.67429330 .00017196 00000+0 73582-3 0 9999 2 63239 97.4155 191.4768 0005086 243.1818 116.8899 15.22867858 34379 HADES-ICM 1 63492U 25052BN 25299.26560530 .00045975 00000+0 14539-2 0 9995 2 63492 97.4095 192.4814 0006116 238.7041 121.3603 15.32626554 34415 INNOSAT 16 (RS92S7) 1 64878U 25155C 25299.23194431 .00005560 00000+0 24522-3 0 9998 2 64878 97.4265 263.1519 0009388 293.1584 66.8662 15.22152661 45043 GEOSCAN 6 (RS92S6) 1 64879U 25155D 25299.22850632 .00012936 00000+0 53536-3 0 9992 2 64879 97.4274 263.3254 0006257 292.0192 68.0380 15.24057960 45057 GEOSCAN 1 (RS92S1) 1 64880U 25155E 25299.22443327 .00013848 00000+0 57042-3 0 9992 2 64880 97.4277 263.3349 0006175 293.3364 66.7223 15.24202240 45055 239ALFEROV (RS61S) 1 64881U 25155F 25299.27356204 .00016973 00000+0 68686-3 0 9993 2 64881 97.4286 263.4369 0005808 294.4865 65.5767 15.24753971 45062 GEOSCAN 2 (RS92S2) 1 64890U 25155Q 25299.72518439 .00014516 00000+0 59092-3 0 9995 2 64890 97.4273 263.8789 0005331 271.9165 88.1462 15.24592750 45139 GEOSCAN 5 (RS92S5) 1 64891U 25155R 25299.77429712 .00017591 00000+0 70352-3 0 9994 2 64891 97.4282 263.9725 0004623 305.1498 54.9307 15.25147571 45141 GEOSCAN 4 (RS92S4) 1 64892U 25155S 25299.77309975 .00018008 00000+0 71909-3 0 9996 2 64892 97.4283 263.9764 0004640 306.3250 53.7559 15.25195110 45142 GEOSCAN 3 (RS92S3) 1 64893U 25155T 25299.76062323 .00020166 00000+0 79455-3 0 9991 2 64893 97.4280 263.9897 0004424 313.0038 47.0829 15.25620365 45147 INNOSAT 3 (RS92S0) 1 64894U 25155U 25299.73111341 .00029899 00000+0 11288-2 0 9995 2 64894 97.4271 264.0258 0003913 326.3388 33.7602 15.26961156 45146